Location: Newark
(12.4436°N, 0.6167°W)
Time: 14:06:53
(UTC+00:00)

Explorer 11/Cluster Stage 4 - Visible Passes

Search period start: 07 December 2019 00:00
Search period end: 17 December 2019 00:00
Orbit: 467 x 1259 km, 28.8° (Epoch: 06 December)

Date Brightness Start Highest point End Pass type
(mag) Time Alt. Az. Time Alt. Az. Time Alt. Az.
07 Dec 6.5 18:31:05 10° WNW 18:34:36 48° SSW 18:38:31 10° SE visible
08 Dec 10.2 05:37:20 10° S 05:39:51 12° SSE 05:42:17 10° SE visible
08 Dec 7.1 18:20:46 10° W 18:24:05 35° SSW 18:27:41 10° SE visible
09 Dec 10.0 05:25:02 10° S 05:29:07 14° SSE 05:33:06 10° ESE visible
09 Dec 7.7 18:10:30 10° W 18:13:33 26° SSW 18:16:45 10° SSE visible
10 Dec 9.9 05:13:16 10° S 05:18:22 18° SSE 05:23:20 10° ESE visible
10 Dec 8.3 18:00:22 10° WSW 18:03:01 19° SSW 18:05:44 10° SSE visible
11 Dec 9.8 05:01:44 10° SSW 05:07:34 21° SSE 05:13:18 10° ESE visible
12 Dec 9.5 04:50:22 10° SSW 04:56:44 25° SSE 05:03:04 10° E visible
13 Dec 9.2 04:39:07 10° SSW 04:45:52 29° SSE 04:52:42 10° E visible
14 Dec 8.9 04:27:58 10° SSW 04:34:58 34° SSE 04:42:13 10° E visible
15 Dec 8.6 04:16:55 10° SW 04:24:04 39° SSE 04:31:38 10° E visible
16 Dec 9.8 02:25:23 12° SE 02:25:23 12° SE 02:26:53 10° SE visible
16 Dec 8.3 04:07:39 18° SSW 04:13:10 46° SSE 04:20:58 10° ENE visible
